Regional Weather Roundup
Issued by NWS

Home | Current Version | Previous Version | Text Only | Print | Product List | Glossary On
Versions: 1 2 3 4 5 6 7 8 9 10 11 12 13 14 15 16 17 18 19 20 21 22 23 24 25 26 27 28 29 30 31 32 33 34 35 36 37 38 39 40 41 42 43 44 45 46 47 48 49 50
000
ASUS44 KFWD 230010
RWRTX
NORTH TEXAS HOURLY WEATHER ROUNDUP
NATIONAL WEATHER SERVICE FORT WORTH TX
700 PM CDT TUE JUL 22 2014

NOTE: "FAIR" INDICATES FEW OR NO CLOUDS BELOW 12,000 FEET WITH NO
SIGNIFICANT WEATHER AND/OR OBSTRUCTIONS TO VISIBILITY.

TXZ118-119-230100-
DALLAS/FORT WORTH METROPLEX

CITY           SKY/WX    TMP DP  RH WIND       PRES   REMARKS
DFW AIRPORT    MOSUNNY   94  70  45 E8        30.01S HX 100
6HR MIN TEMP:  92; 6HR MAX TEMP:  98;

DALLAS LOVE    MOSUNNY   93  69  45 E9        30.01S HX  98
6HR MIN TEMP:  92; 6HR MAX TEMP:  98;

FTW MEACHAM    MOSUNNY   95  67  39 E12       30.00S HX  99
6HR MIN TEMP:  93; 6HR MAX TEMP:  99;

DAL-EXECUTIVE  SUNNY     93  70  46 E9        30.01F HX  99
6HR MIN TEMP:  92; 6HR MAX TEMP:  98;

FTW-ALLIANCE   MOSUNNY   92  68  45 E7        30.01S HX  96
6HR MIN TEMP:  91; 6HR MAX TEMP:  96;

FTW-NAS-JRB    PTSUNNY   97  65  34 E8        30.04S HX  99
6HR MIN TEMP:  95; 6HR MAX TEMP: 100;

FTW-SPINKS     MOSUNNY   97  63  32 E12       30.02F HX  98
ARLINGTON      MOSUNNY   94  68  42 E10       30.01S HX  98
6HR MIN TEMP:  91; 6HR MAX TEMP:  97;

GRAND PRAIRIE  SUNNY     93  68  43 E9        30.02F HX  97
ADDISON        MOSUNNY   91  68  46 NE9       30.03S HX  95
MESQUITE       SUNNY     91  68  46 NE6       30.02F HX  95
LANCASTER      SUNNY     92  66  42 E6        30.02S HX  95
6HR MIN TEMP:  92; 6HR MAX TEMP:  96;

$$

TXZ091>094-102>105-117-120-121-131>134-230100-
NORTH CENTRAL TEXAS

CITY           SKY/WX    TMP DP  RH WIND       PRES   REMARKS
SHRMAN/DENISON SUNNY     91  69  48 E7        30.05F HX  96
6HR MIN TEMP:  90; 6HR MAX TEMP:  94;

GAINESVILLE    MOSUNNY   92  70  49 E9        30.06S HX  97
6HR MIN TEMP:  88; 6HR MAX TEMP:  94;

BOWIE          SUNNY     91  72  54 SE5       30.05S HX  98
6HR MIN TEMP:  90; 6HR MAX TEMP:  94;

BRIDGEPORT     SUNNY     92  66  42 E5        30.05S HX  94
6HR MIN TEMP:  91; 6HR MAX TEMP:  95;

DECATUR        SUNNY     92  68  46 E6        30.05S HX  96
6HR MIN TEMP:  90; 6HR MAX TEMP:  94;

DENTON         MOSUNNY   93  69  45 E6        30.02S HX  98
6HR MIN TEMP:  89; 6HR MAX TEMP:  95;

MCKINNEY       MOSUNNY   91  72  53 E7        30.03S HX  98
6HR MIN TEMP:  89; 6HR MAX TEMP:  94;

GREENVILLE     MOSUNNY   90  68  48 NE3       30.03F HX  93
ROCKWALL       SUNNY     89  72  57 E6        30.02S HX  96
6HR MIN TEMP:  89; 6HR MAX TEMP:  93;

TERRELL        SUNNY     91  69  48 NE9       30.03S HX  96
6HR MIN TEMP:  91; 6HR MAX TEMP:  95;

WAXAHACHIE     SUNNY     92  65  41 NE5       30.02S HX  94
6HR MIN TEMP:  91; 6HR MAX TEMP:  96;

CLEBURNE       MOSUNNY   95  68  41 E8        30.03S HX  99
GRANBURY       MOSUNNY   96  66  36 SE5       30.02S HX 100
6HR MIN TEMP:  95; 6HR MAX TEMP:  99;

$$

TXZ083>090-098>101-113>116-127>130-139>142-154-155-230100-
WESTERN NORTH TEXAS

CITY           SKY/WX    TMP DP  RH WIND       PRES   REMARKS
WICHITA FALLS  MOSUNNY   94  69  44 SE9       30.02S HX  99
6HR MIN TEMP:  92; 6HR MAX TEMP:  96;

WF-KICKAPOO    SUNNY     94  64  37 SE8       30.04S HX  96
6HR MIN TEMP:  92; 6HR MAX TEMP:  96;

VERNON         MOSUNNY   98  63  31 SE7       30.04R HX  99
6HR MIN TEMP:  63; 6HR MAX TEMP:  99;

ABILENE        SUNNY     96  61  31 E9        30.05S HX  96
6HR MIN TEMP:  92; 6HR MAX TEMP:  98;

ABILENE-DYESS  SUNNY     95  64  36 SE10      30.04S HX  97
6HR MIN TEMP:  92; 6HR MAX TEMP:  97;

BRECKENRIDGE   SUNNY     99  59  25 E8        30.01R HX  99
6HR MIN TEMP:  95; 6HR MAX TEMP: 101;

MINERAL WELLS  SUNNY     95  67  39 E13       30.01S HX  99
6HR MIN TEMP:  93; 6HR MAX TEMP:  98;

STEPHENVILLE   SUNNY     93  60  32 E5        30.06F HX  93
6HR MIN TEMP:  90; 6HR MAX TEMP:  96;

COMANCHE       SUNNY     93  65  39 SE8       30.04S HX  95
6HR MIN TEMP:  91; 6HR MAX TEMP:  96;

BROWNWOOD      SUNNY     93  66  40 E12       30.04S HX  96
COLEMAN        SUNNY     94  59  31 SE8       30.05S HX  93
6HR MIN TEMP:  90; 6HR MAX TEMP:  95;

BRADY          SUNNY     93  66  40 E9        30.05S HX  96
$$

TXZ143>147-156>162-174-175-230100-
CENTRAL TEXAS

CITY           SKY/WX    TMP DP  RH WIND       PRES   REMARKS
WACO           MOSUNNY   95  70  44 E5        29.98F HX 101
6HR MIN TEMP:  93; 6HR MAX TEMP:  98;

WACO-TSTC      SUNNY     95  70  43 E6        29.99S HX 101
WACO-MCGREGOR  MOSUNNY   95  70  43 SE10      29.99S HX 101
6HR MIN TEMP:  91; 6HR MAX TEMP:  99;

HILLSBORO      SUNNY     94  67  40 E6        30.01S HX  97
6HR MIN TEMP:  91; 6HR MAX TEMP:  98;

CORSICANA      MOSUNNY   92  71  50 E7        30.02S HX  98
6HR MIN TEMP:  91; 6HR MAX TEMP:  96;

MEXIA          SUNNY     89  73  59 E5        30.00S HX  97
6HR MIN TEMP:  88; 6HR MAX TEMP:  93;

HEARNE         SUNNY     97  77  51 CALM      29.99S HX 111
6HR MIN TEMP:  94; 6HR MAX TEMP:  99;

CAMERON        MOSUNNY   92  73  52 CALM      29.98F HX 101
6HR MIN TEMP:  91; 6HR MAX TEMP:  95;

TEMPLE         SUNNY     93  70  46 E8        30.00S HX  99
6HR MIN TEMP:  90; 6HR MAX TEMP:  95;

KILLEEN        MOSUNNY   93  64  38 E5        30.01S HX  95
KILLEEN-SKYLRK SUNNY     93  66  40 SE7       30.00S HX  96
6HR MIN TEMP:  93; 6HR MAX TEMP:  97;

FORT HOOD      SUNNY     95  67  39 CALM      30.00F HX  99
6HR MIN TEMP:  94; 6HR MAX TEMP:  99;

GATESVILLE     SUNNY     95  66  38 E3        30.02S HX  98
HAMILTON       MOSUNNY   93  67  41 E7        30.04S HX  96
6HR MIN TEMP:  91; 6HR MAX TEMP:  96;

LAMPASAS       SUNNY     93  69  44 SE6       30.02S HX  98
6HR MIN TEMP:  91; 6HR MAX TEMP:  96;

$$

TXZ095>097-106>112-122>126-135>138-148>153-164>167-230100-
EAST TEXAS

CITY           SKY/WX    TMP DP  RH WIND       PRES   REMARKS
PARIS          SUNNY     88  68  51 E8        30.05F HX  91
6HR MIN TEMP:  84; 6HR MAX TEMP:  90;

SULPHUR SPRNGS SUNNY     89  68  50 E7        30.06S HX  92
6HR MIN TEMP:  87; 6HR MAX TEMP:  91;

CLARKSVILLE    SUNNY     89  69  51 E5        30.05S HX  93
6HR MIN TEMP:  87; 6HR MAX TEMP:  92;

MOUNT PLEASANT SUNNY     87  67  51 NE3       30.05F HX  90
6HR MIN TEMP:  86; 6HR MAX TEMP:  90;

GILMER         SUNNY     88  72  58 E3        30.06R HX  94
MINEOLA        SUNNY     90  72  55 CALM      30.04S HX  96
TYLER          SUNNY     89  69  51 E7        30.03S HX  93
6HR MIN TEMP:  87; 6HR MAX TEMP:  94;

LONGVIEW       SUNNY     88  68  51 E5        30.03S HX  91
6HR MIN TEMP:  87; 6HR MAX TEMP:  91;

MARSHALL       SUNNY     89  71  54 CALM      30.05S HX  94
6HR MIN TEMP:  89; 6HR MAX TEMP:  91;

ATHENS         SUNNY     88  70  55 NE5       30.01S HX  92
JACKSONVILLE   SUNNY     87  69  55 E5        30.06R HX  91
HENDERSON      SUNNY     87  67  50 E5        30.04S HX  90
6HR MIN TEMP:  87; 6HR MAX TEMP:  91;

NACOGDOCHES    SUNNY     88  70  55 E6        30.02S HX  92
6HR MIN TEMP:  84; 6HR MAX TEMP:  91;

LUFKIN         SUNNY     90  72  55 NE5       30.01S HX  97
6HR MIN TEMP:  89; 6HR MAX TEMP:  94;

$$

SUPPLEMENTAL OBSERVATIONS (CENTRAL)

CITY           SKY/WX    TMP DP  RH WIND       PRES   REMARKS
PAT MAYSE LAKE   N/A     88  70  55 SE5         N/A  HX  92
GREENVILLE       N/A     88  70  55 E7          N/A  HX  92
CEDAR HILL       N/A     93  70  46 E2G14       N/A  HX  99
PALESTINE        N/A     90  73  58 E1          N/A  HX  98
MCGREGOR         N/A     93  70  46 SE8         N/A  HX  99
TEMPLE           N/A     93  70  46 SE7         N/A  HX  99
$$

SUPPLEMENTAL OBSERVATIONS (WEST)

CITY           SKY/WX    TMP DP  RH WIND       PRES   REMARKS
MILLERS CREEK    N/A     99  63  30 SE8         N/A  HX 100
POSSUM KINGDOM   N/A     97  63  32 E8          N/A  HX  98



USA.gov is the U.S. government's official web portal to all federal, state and local government web resources and services.